WS Maaseik 1 Meer informatie WS Maaseik 1


WS Maaseik 2 Meer informatie WS Maaseik 2


Regen radar Meer informatie rain snow radar


Bezoek onze andere website:

Vorige versie
weerstation Maaseik


Bezoek ook eens deze sites:

Weerstation Geleen



Het weer levert geen direct gevaar op.    Er zijn geen waarschuwingen afgegeven.

15 daagse weersverwachting Mo i Rana (NO)

  • Overzicht
  • Per uur
  • 15 dagen
  • Extra
  • Vergelijk
  • Kaarten
  • Dagkaart
  • Meer »
  • Info
  • Statistieken
  • Directe link
    Temp 6h Neerslag Wind  
 03:14     22:50    Daglengte: 19:36 Vandaag
20:00
 
3
 03:09     22:54    Daglengte: 19:45 Morgen
02:00
 
2
08:00
 
1
14:00
 
1
20:00
 
2
 03:05     22:59    Daglengte: 19:54 Donderdag 19 Mei
02:00
 
2
08:00
 
2
14:00
10°
 
2
20:00
 
2
 03:01     23:03    Daglengte: 20:02 Vrijdag 20 Mei
02:00
 
2
08:00
6.5 mm
1
Locatie info
Region: Nordland
Latitude: 66.3106°N
Longitude: 14.1346°E
40 masl
Postcode: 8622
Temp/Neerslag /Baro Onweer/DauwpuntSneeuw
    Temp Baro 1h Neerslag Dauwpunt Wind UV BewolkingSneeuw  
 03:14     22:50    Daglengte: 19:36 Vandaag
17:00
Voelt als: 2.7°
1025.5 hPa   -1.3°
3
Windvlaag: 4.5 m/s
66%7 cm
18:00
Voelt als: 2.6°
1025.2 hPa   -1.6°
3
Windvlaag: 5.2 m/s
63%7 cm
19:00
Voelt als: 2.3°
1024.8 hPa
11%
-1.3°
3
Windvlaag: 5.4 m/s
72%7 cm
20:00
Voelt als: 2.0°
1024.6 hPa   -0.9°
3
Windvlaag: 5.5 m/s
77%6 cm
21:00
Voelt als: 1.9°
1024.4 hPa
11%
-0.8°
3
Windvlaag: 5.5 m/s
59%6 cm
22:00
Voelt als: 1.5°
1024.3 hPa   -0.9°
3
Windvlaag: 4.9 m/s
23%6 cm
23:00
Voelt als: 1.3°
1024.1 hPa   -0.7°
2
Windvlaag: 3.4 m/s
23%6 cm
 03:09     22:54    Daglengte: 19:45 Morgen
00:00
Voelt als: 1.3°
1023.9 hPa   -0.6°
2
Windvlaag: 2.7 m/s
23%6 cm
01:00
Voelt als: 1.0°
1023.9 hPa   -0.5°
2
Windvlaag: 3.3 m/s
53%6 cm
02:00
Voelt als: 1.0°
1023.5 hPa
18%
0.2°
2
Windvlaag: 3.7 m/s
58%6 cm
03:00
Voelt als: 0.4°
1023.3 hPa
13%
0.3°
2
Windvlaag: 3.9 m/s
66%6 cm
04:00
Voelt als: 0.1°
1023.0 hPa
11%
0.1°
2
Windvlaag: 3.6 m/s
63%6 cm
05:00
Voelt als: 0.8°
1022.7 hPa   0.1°
1
Windvlaag: 2.9 m/s
61%6 cm
06:00
Voelt als: 1.8°
1022.6 hPa   0.4°
1
Windvlaag: 2 m/s
23%6 cm
07:00
Voelt als: 3.5°
1022.6 hPa   0.6°
1
Windvlaag: 1.9 m/s
49%6 cm
08:00
Voelt als: 4.5°
1022.3 hPa   0.4°
1
Windvlaag: 1.8 m/s
10%6 cm
09:00
Voelt als: 5.2°
1022.1 hPa   0.8°
1
Windvlaag: 1.4 m/s
12%5 cm
10:00
Voelt als: 5.9°
1021.9 hPa   1.2°
1
Windvlaag: 1.2 m/s
39%5 cm
11:00
Voelt als: 6.7°
1021.6 hPa   1.7°
1
Windvlaag: 0.8 m/s
35%5 cm
12:00
1021.1 hPa   2.2°
1
Windvlaag: 0.6 m/s
16%4 cm
13:00
Voelt als: 8.2°
1020.6 hPa   2.5°
1
Windvlaag: -1 m/s
14%4 cm
14:00
1020.2 hPa   2.4°
1
Windvlaag: -0.9 m/s
11%4 cm
15:00
1019.7 hPa   2.3°
1
Windvlaag: -0.7 m/s
4%3 cm
16:00
10°
1019.3 hPa   2.2°
1
Windvlaag: -0.1 m/s
5%3 cm
17:00
10°
Voelt als: 9.5°
1018.9 hPa   2.5°
1
Windvlaag: 0.2 m/s
23%3 cm
18:00
10°
Voelt als: 9.2°
1018.4 hPa   2.5°
1
Windvlaag: 0.8 m/s
13%3 cm
19:00
Voelt als: 9.2°
1018.0 hPa   2.6°
1
Windvlaag: 1 m/s
12%3 cm
20:00
Voelt als: 8.3°
1017.8 hPa   2.3°
2
Windvlaag: 0.8 m/s
12%2 cm
21:00
Voelt als: 7.2°
1017.8 hPa   2.4°
2
Windvlaag: 1.5 m/s
51%2 cm
22:00
Voelt als: 5.2°
1017.9 hPa   1.9°
2
Windvlaag: 1.7 m/s
57%2 cm
23:00
Voelt als: 3.5°
1018.0 hPa   1.4°
2
Windvlaag: 1.9 m/s
64%2 cm
 03:05     22:59    Daglengte: 19:54 Donderdag 19 Mei
00:00
Voelt als: 2.7°
1018.0 hPa   1.4°
2
Windvlaag: 2.4 m/s
64%2 cm
01:00
Voelt als: 2.2°
1018.3 hPa   1.1°
2
Windvlaag: 2.2 m/s
69%2 cm
02:00
Voelt als: 1.9°
1018.6 hPa
14%
0.5°
2
Windvlaag: 1.9 m/s
71%2 cm
03:00
Voelt als: 1.7°
1018.7 hPa
14%
0.2°
2
Windvlaag: 2.4 m/s
63%2 cm
04:00
Voelt als: 1.7°
1018.9 hPa
18%
-0.1°
2
Windvlaag: 2.7 m/s
42%2 cm
05:00
Voelt als: 2.0°
1019.1 hPa
69%
0.1°
2
Windvlaag: 2.6 m/s
41%2 cm
06:00
Voelt als: 2.3°
1019.3 hPa
76%
0.1°
2
Windvlaag: 2.5 m/s
39%2 cm
07:00
Voelt als: 3.1°
1019.5 hPa
33%
0.4°
2
Windvlaag: 2.5 m/s
39%2 cm
08:00
Voelt als: 4.5°
1019.4 hPa
29%
1.1°
2
Windvlaag: 1.4 m/s
33%2 cm
09:00
Voelt als: 6.1°
1019.3 hPa
15%
1.8°
2
Windvlaag: 0.6 m/s
24%2 cm
10:00
Voelt als: 7.5°
1019.3 hPa
15%
2.3°
1
Windvlaag: -0.1 m/s
23%2 cm
11:00
Voelt als: 6.9°
1019.2 hPa
26%
6.9°
1
Windvlaag: -1.1 m/s
81%2 cm
12:00
Voelt als: 7.8°
1019.0 hPa
24%
7.2°
1
Windvlaag: -1.5 m/s
67%2 cm
13:00
Voelt als: 8.3°
1018.8 hPa
21%
7.2°
2
Windvlaag: -1.9 m/s
21%2 cm
14:00
10°
Voelt als: 8.9°
1018.3 hPa
21%
6.9°
2
Windvlaag: -1.5 m/s
70%2 cm
15:00
11°
1017.9 hPa
21%
6.5°
2
Windvlaag: -0.9 m/s
12%2 cm
16:00
11°
1017.4 hPa
21%
6.3°
2
Windvlaag: -1.2 m/s
48%1 cm
17:00
11°
1017.1 hPa
21%
5.7°
2
Windvlaag: -1.1 m/s
71%1 cm
18:00
11°
1016.6 hPa
21%
4.7°
2
Windvlaag: -1.5 m/s
74%1 cm
19:00
10°
1016.2 hPa
21%
3.9°
2
Windvlaag: -1.6 m/s
90%1 cm
20:00
Voelt als: 7.8°
1015.6 hPa
21%
4.0°
2
Windvlaag: -0.7 m/s
87%1 cm
21:00
Voelt als: 6.5°
1015.3 hPa
21%
4.4°
2
Windvlaag: 0.2 m/s
81%1 cm
22:00
Voelt als: 5.6°
1015.2 hPa
21%
3.5°
2
Windvlaag: 0.7 m/s
68%1 cm
23:00
Voelt als: 4.7°
1015.0 hPa
21%
3.4°
2
Windvlaag: 0.9 m/s
34%1 cm
 03:01     23:03    Daglengte: 20:02 Vrijdag 20 Mei
00:00
Voelt als: 4.6°
1015.0 hPa
23%
1.0°
2
Windvlaag: 1.7 m/s
58%1 cm
01:00
Voelt als: 4.3°
1015.0 hPa
24%
2.9°
2
Windvlaag: 2.1 m/s
81%1 cm
02:00
Voelt als: 4.8°
1015.0 hPa
88%
2.0°
2
Windvlaag: 1.5 m/s
83%1 cm
03:00
Voelt als: 4.4°
1015.1 hPa 3.1 mm
100%
4.5°
2
Windvlaag: 2 m/s
94%1 cm
04:00
Voelt als: 4.8°
1015.1 hPa 3.4 mm
100%
2.9°
1
Windvlaag: 1.1 m/s
95%1 cm
05:00
Voelt als: 4.9°
1015.4 hPa
48%
3.7°
1
Windvlaag: 1.8 m/s
84%1 cm
06:00
Voelt als: 6.1°
1015.1 hPa
26%
4.6°
1
Windvlaag: 8.2 m/s
86%1 cm
07:00
Voelt als: 6.2°
1015.4 hPa
98%
5.0°
1
Windvlaag: 9 m/s
99%1 cm
08:00
Voelt als: 6.4°
1015.6 hPa
100%
4.7°
1
Windvlaag: 7.7 m/s
90%1 cm
09:00
Voelt als: 7.0°
1015.7 hPa
100%
5.1°
1
Windvlaag: 6.6 m/s
73%1 cm
10:00
Voelt als: 8.5°
1015.6 hPa
45%
6.1°
1
Windvlaag: 5.6 m/s
71%1 cm
11:00
Voelt als: 8.5°
1015.6 hPa
32%
6.3°
2
Windvlaag: 6.7 m/s
74%1 cm
12:00
10°
Voelt als: 9.2°
1015.5 hPa
29%
6.6°
2
Windvlaag: 8.2 m/s
64%1 cm
13:00
11°
1015.3 hPa
24%
6.9°
2
Windvlaag: 7.8 m/s
81%1 cm
14:00
11°
1014.9 hPa
27%
6.9°
1
Windvlaag: 5.7 m/s
76%1 cm
Temp/Neerslag /Baro Onweer/DauwpuntSneeuw
    Temp Baro Neerslag Dauwpunt Wind BewolkingSneeuw  
 03:14     22:50    Daglengte: 19:36 Vandaag
17:00
Voelt als: 2.7°
1025.5 hPa   -1.3°
3
66%7 cm
20:00
Voelt als: 2.0°
1024.6 hPa   -0.9°
3
77%6 cm
23:00
Voelt als: 1.3°
1024.1 hPa   -0.7°
2
23%6 cm
 03:09     22:54    Daglengte: 19:45 Morgen
02:00
Voelt als: 1.0°
1023.5 hPa   0.2°
2
58%6 cm
05:00
Voelt als: 0.8°
1022.7 hPa   0.1°
1
61%6 cm
08:00
Voelt als: 4.5°
1022.3 hPa   0.4°
1
10%6 cm
11:00
Voelt als: 6.7°
1021.6 hPa   1.7°
1
35%5 cm
14:00
1020.2 hPa   2.4°
1
11%4 cm
17:00
10°
Voelt als: 9.5°
1018.9 hPa   2.5°
1
23%3 cm
20:00
Voelt als: 8.3°
1017.8 hPa   2.3°
2
12%2 cm
23:00
Voelt als: 3.5°
1018.0 hPa   1.4°
2
64%2 cm
 03:05     22:59    Daglengte: 19:54 Donderdag 19 Mei
02:00
Voelt als: 1.9°
1018.6 hPa   0.5°
2
71%2 cm
05:00
Voelt als: 2.0°
1019.1 hPa   0.1°
2
41%2 cm
08:00
Voelt als: 4.5°
1019.4 hPa   1.1°
2
33%2 cm
11:00
Voelt als: 6.9°
1019.2 hPa   6.9°
1
81%2 cm
14:00
10°
Voelt als: 8.9°
1018.3 hPa   6.9°
2
70%2 cm
17:00
11°
1017.1 hPa   5.7°
2
71%1 cm
20:00
Voelt als: 7.8°
1015.6 hPa   4.0°
2
87%1 cm
23:00
Voelt als: 4.7°
1015.0 hPa   3.4°
2
34%1 cm
 03:01     23:03    Daglengte: 20:02 Vrijdag 20 Mei
02:00
Voelt als: 4.8°
1015.0 hPa   2.0°
2
83%1 cm
05:00
Voelt als: 4.9°
1015.4 hPa 6.5 mm 3.7°
1
84%1 cm
08:00
Voelt als: 6.4°
1015.6 hPa   4.7°
1
90%1 cm
11:00
Voelt als: 8.5°
1015.6 hPa   6.3°
2
74%1 cm
14:00
11°
1014.9 hPa   6.9°
1
76%1 cm
17:00
13°
1017.9 hPa 2.2 mm 5.6°
1
1%
20:00
13°
1016.6 hPa 2.2 mm 6.0°
2
1%
23:00
Voelt als: 7.8°
1016.4 hPa 2.2 mm 5.7°
2
0%
 02:57     23:08    Daglengte: 20:11 Zaterdag 21 Mei
02:00
Voelt als: 7.8°
1015.1 hPa 2.2 mm 4.9°
2
0%
05:00
Voelt als: 8.3°
1013.9 hPa 2.2 mm 5.6°
2
1%
08:00
12°
1012.8 hPa 2.2 mm 6.0°
1
1%
11:00
15°
1011.5 hPa 2.3 mm 6.0°
1
1%
14:00
16°
1011.1 hPa 2.6 mm 7.4°
2
1%
17:00
15°
1011.5 hPa 4.1 mm 8.4°
2
1%
20:00
13°
1012.7 hPa 5.6 mm 9.8°
0
1%
23:00
12°
1012.8 hPa 6.0 mm 9.1°
1
1%
 02:53     23:12    Daglengte: 20:19 Zondag 22 Mei
02:00
11°
1013.3 hPa 6.4 mm 9.6°
1
1%
05:00
10°
Voelt als: 8.6°
1013.3 hPa 7.1 mm 9.5°
2
1%
08:00
Voelt als: 8.5°
1013.5 hPa 7.8 mm 8.6°
2
1%
11:00
Voelt als: 9.1°
1013.7 hPa 8.3 mm 8.4°
1
1%
14:00
10°
1013.3 hPa 8.5 mm 7.3°
2
1%
17:00
Voelt als: 7.7°
1013.6 hPa 9.1 mm 7.8°
2
1%
20:00
1012.8 hPa 9.2 mm 5.9°
1
1%
23:00
Voelt als: 7.6°
1012.2 hPa 9.7 mm 6.8°
1
1%
 02:49     23:17    Daglengte: 20:28 Maandag 23 Mei
02:00
Voelt als: 7.9°
1011.5 hPa 9.9 mm 7.4°
1
1%
05:00
Voelt als: 7.4°
1010.0 hPa 10.8 mm 7.2°
1
1%
08:00
Voelt als: 7.9°
1009.3 hPa 12.0 mm 7.2°
1
1%
11:00
Voelt als: 7.7°
1008.9 hPa 13.3 mm 7.4°
2
1%
14:00
Voelt als: 7.7°
1008.9 hPa 15.3 mm 8.1°
2
1%
17:00
Voelt als: 7.7°
1008.6 hPa 16.7 mm 7.1°
1
1%
20:00
Voelt als: 7.6°
1008.4 hPa 16.9 mm 6.7°
1
1%
23:00
1008.2 hPa 17.2 mm 6.5°
1
1%
 02:45     23:21    Daglengte: 20:36 Dinsdag 24 Mei
02:00
1008.1 hPa 17.4 mm 6.7°
1
1%
05:00
1007.6 hPa 17.5 mm 7.0°
1
1%
08:00
1007.9 hPa 17.7 mm 6.3°
1
1%
11:00
Voelt als: 8.3°
1008.7 hPa 17.7 mm 6.4°
0
1%
14:00
11°
1008.8 hPa 35.4 mm 6.3°
0
1%
20:00
12°
1010.1 hPa 35.5 mm 3.7°
1
1%
 02:40     23:26    Daglengte: 20:46 Woensdag 25 Mei
02:00
Voelt als: 7.4°
1013.4 hPa 35.5 mm 3.7°
1
1%
08:00
Voelt als: 7.0°
1015.4 hPa 35.5 mm 3.9°
2
1%
14:00
11°
1016.0 hPa 35.5 mm -3.6°
3
1%
20:00
11°
1016.7 hPa 35.5 mm -4.9°
2
1%
 02:36     23:31    Daglengte: 20:55 Donderdag 26 Mei
02:00
Voelt als: 7.0°
1018.0 hPa 35.5 mm -3.0°
1
1%
08:00
10°
1017.9 hPa 35.5 mm -3.5°
0
0%
14:00
15°
1016.6 hPa 35.5 mm 2.9°
1
0%
20:00
17°
1015.3 hPa 35.5 mm 3.3°
0
0%
 02:32     23:36    Daglengte: 21:04 Vrijdag 27 Mei
02:00
12°
1015.5 hPa 35.5 mm 4.1°
1
0%
08:00
16°
1014.4 hPa 35.5 mm 4.1°
1
0%
14:00
13°
1014.2 hPa 1.1 mm 5.8°
2
74%
20:00
12°
1014.7 hPa 1.1 mm 5.8°
2
82%
 02:27     23:41    Daglengte: 21:14 Zaterdag 28 Mei
02:00
1015.7 hPa 1.1 mm 6.2°
1
74%
08:00
10°
1015.8 hPa 1.3 mm 5.9°
1
72%
14:00
13°
1016.0 hPa 0.5 mm 5.8°
1
71%
20:00
12°
1016.1 hPa 0.5 mm 5.9°
1
71%
 02:23     23:46    Daglengte: 21:23 Zondag 29 Mei
02:00
Voelt als: 9.1°
1016.7 hPa 0.8 mm 5.9°
0
67%
08:00
11°
1016.2 hPa 1.5 mm 5.8°
1
72%
14:00
14°
1015.7 hPa 1.1 mm 6.7°
1
71%
20:00
14°
1015.3 hPa 0.8 mm 7.2°
1
69%
 02:19     23:51    Daglengte: 21:32 Maandag 30 Mei
02:00
10°
Voelt als: 9.8°
1015.9 hPa 0.6 mm 6.9°
0
62%
08:00
11°
1015.2 hPa 0.4 mm 7.0°
1
69%
14:00
13°
1014.3 hPa 0.9 mm 7.2°
1
75%
20:00
13°
1013.0 hPa 1.4 mm 7.5°
1
74%
 02:14     23:56    Daglengte: 21:42 Dinsdag 31 Mei
02:00
10°
1012.7 hPa 0.4 mm 7.1°
1
69%
08:00
11°
1011.7 hPa 1.5 mm 7.3°
1
73%
14:00
13°
1011.5 hPa 1.7 mm 7.5°
2
76%
20:00
13°
1011.6 hPa 1.1 mm 7.2°
2
81%
 02:10     00:02    Daglengte: 2:08 Woensdag 01 Jun
02:00
1012.2 hPa 0.5 mm 7.0°
1
76%
08:00
11°
1011.5 hPa 0.4 mm 7.2°
1
78%
14:00
14°
1010.8 hPa 0.7 mm 7.8°
1
76%
  CAPE Lifted Index Hail Supercell Tornado SRH 3km CL BTM PRES CL TOP PRES Swiss DWD icon SMHI TS
 03:14     22:50    Daglengte: 19:36 Vandaag
17:00 0 J/kg 9.1 K 0 % 0 % 0 % 0 m²/s² 0 0 9.85 3
18:00 0 J/kg 8.9 K 0 % 0 % 0 % 0 m²/s² 0 0 9.77 2
19:00 0 J/kg 8.9 K 0 % 0 % 0 % 0 m²/s² 0 0 9.98 3
20:00 0 J/kg 9.1 K 0 % 0 % 0 % 0 m²/s² 0 0 10.57 3
21:00 0 J/kg 9.4 K 0 % 0 % 0 % 0 m²/s² 0 0 10.87 3
22:00 0 J/kg 9.4 K 0 % 0 % 0 % 0 m²/s² 0 0 11.11 2
23:00 0 J/kg 9.7 K 0 % 0 % 0 % 0 m²/s² 0 0 11.71 2
 03:09     22:54    Daglengte: 19:45 Morgen
00:00 0 J/kg 9.8 K 0 % 0 % 0 % 0 m²/s² 0 0 12.05 2
01:00 0 J/kg 10.2 K 0 % 0 % 0 % 0 m²/s² 0 0 12.75 2
02:00 0 J/kg 10.3 K 0 % 0 % 0 % 0 m²/s² 0 0 13.06 2
03:00 0 J/kg 10.2 K 0 % 0 % 0 % 0 m²/s² 0 0 13.05 3
04:00 0 J/kg 10.3 K 0 % 0 % 0 % 0 m²/s² 0 0 13.39 3
05:00 0 J/kg 10.1 K 0 % 0 % 0 % 0 m²/s² 0 0 13.04 3
06:00 0 J/kg 9.9 K 0 % 0 % 0 % 0 m²/s² 0 0 12.6 2
07:00 0 J/kg 9.4 K 0 % 0 % 0 % 0 m²/s² 0 0 11.89 2
08:00 0 J/kg 8.9 K 0 % 0 % 0 % 0 m²/s² 0 0 11.24 1
09:00 0 J/kg 8.8 K 0 % 0 % 0 % 0 m²/s² 0 0 10.99 1
10:00 0 J/kg 8.8 K 0 % 0 % 0 % 0 m²/s² 0 0 10.99 2
11:00 0 J/kg 8.8 K 0 % 0 % 0 % 0 m²/s² 0 0 10.81 2
12:00 0 J/kg 9.4 K 0 % 0 % 0 % 0 m²/s² 0 0 11.41 2
13:00 0 J/kg 9.5 K 0 % 0 % 0 % 0 m²/s² 0 0 11.45 2
14:00 0 J/kg 10.0 K 0 % 0 % 0 % 0 m²/s² 0 0 11.95 0
15:00 0 J/kg 10.1 K 0 % 0 % 0 % 0 m²/s² 0 0 12.23 0
16:00 0 J/kg 9.9 K 0 % 0 % 0 % 0 m²/s² 0 0 12.24 1
17:00 0 J/kg 10.0 K 0 % 0 % 0 % 0 m²/s² 0 0 12.43 2
18:00 0 J/kg 9.7 K 0 % 0 % 0 % 0 m²/s² 0 0 12.4 2
19:00 0 J/kg 9.7 K 0 % 0 % 0 % 0 m²/s² 0 0 12.82 0
20:00 0 J/kg 9.5 K 0 % 0 % 0 % 0 m²/s² 0 0 12.62 1
21:00 0 J/kg 9.3 K 0 % 0 % 0 % 0 m²/s² 0 0 12.33 2
22:00 0 J/kg 9.5 K 0 % 0 % 0 % 0 m²/s² 0 0 10.88 3
23:00 0 J/kg 10.9 K 0 % 0 % 0 % 0 m²/s² 0 0 11.65 3
 03:05     22:59    Daglengte: 19:54 Donderdag 19 Mei
00:00 0 J/kg 11.0 K 0 % 0 % 0 % 0 m²/s² 0 0 11.48 3
01:00 0 J/kg 8.4 K 0 % 0 % 0 % 0 m²/s² 0 0 8.64 3
02:00 0 J/kg 6.8 K 0 % 0 % 0 % 0 m²/s² 0 0 7.22 3
03:00 0 J/kg 4.0 K 0 % 0 % 0 % 0 m²/s² 0 0 4.24 3
04:00 0 J/kg 3.3 K 0 % 0 % 0 % 0 m²/s² 0 0 4.5 3
05:00 0 J/kg 3.0 K 0 % 0 % 0 % 0 m²/s² 0 0 6.66 3
06:00 1 J/kg 3.6 K 0 % 0 % 0 % 0 m²/s² 0 0 7.26 3
07:00 3 J/kg 4.3 K 0 % 0 % 0 % 0 m²/s² 0 0 7.6 3
08:00 1 J/kg 4.4 K 0 % 0 % 0 % 0 m²/s² 0 0 7.28 3
09:00 4 J/kg 4.7 K 0 % 0 % 0 % 0 m²/s² 0 0 7.28 3
10:00 2 J/kg 5.3 K 0 % 0 % 0 % 0 m²/s² 0 0 7.82 3
11:00 4 J/kg 5.5 K 0 % 0 % 0 % 0 m²/s² 0 0 7.87 3
12:00 5 J/kg 6.3 K 0 % 0 % 0 % 0 m²/s² 0 0 8.88 3
13:00 11 J/kg 6.6 K 0 % 0 % 0 % 0 m²/s² 0 0 9.33 2
14:00 10 J/kg 6.4 K 0 % 0 % 0 % 0 m²/s² 0 0 9.61 3
15:00 15 J/kg 5.3 K 0 % 0 % 0 % 0 m²/s² 0 0 8.78 2
16:00 12 J/kg 5.0 K 0 % 0 % 0 % 0 m²/s² 0 0 8.39 1
17:00 2 J/kg 4.9 K 0 % 0 % 0 % 0 m²/s² 0 0 7.96 3
18:00 0 J/kg 4.6 K 0 % 0 % 0 % 0 m²/s² 0 0 7.66 3
19:00 0 J/kg 4.9 K 0 % 0 % 0 % 0 m²/s² 0 0 7.81 3
20:00 0 J/kg 5.4 K 0 % 0 % 0 % 0 m²/s² 0 0 8.22 3
21:00 0 J/kg 5.7 K 0 % 0 % 0 % 0 m²/s² 0 0 8.67 3
22:00 0 J/kg 5.1 K 0 % 0 % 0 % 0 m²/s² 0 0 8.25 3
23:00 0 J/kg 4.1 K 0 % 0 % 0 % 0 m²/s² 0 0 7.01 1
 03:01     23:03    Daglengte: 20:02 Vrijdag 20 Mei
00:00 0 J/kg 2.0 K 0 % 0 % 0 % 0 m²/s² 0 0 3.59 3
01:00 0 J/kg 1.5 K 0 % 0 % 0 % 0 m²/s² 0 0 2.07 3
02:00 0 J/kg 0.9 K 0 % 0 % 0 % 0 m²/s² 0 0 1.17 3
03:00 0 J/kg 1.2 K 0 % 0 % 0 % 0 m²/s² 0 0 1.59 80
04:00 0 J/kg 2.1 K 0 % 0 % 0 % 0 m²/s² 0 0 2.97 61
05:00 0 J/kg 1.5 K 0 % 0 % 0 % 0 m²/s² 0 0 2.76 3
06:00 1 J/kg 2.1 K 0 % 0 % 0 % 0 m²/s² 0 0 3.72 3
07:00 7 J/kg 3.2 K 0 % 0 % 0 % 0 m²/s² 0 0 5.18 3
08:00 11 J/kg 4.1 K 0 % 0 % 0 % 0 m²/s² 0 0 6.41 3
09:00 6 J/kg 4.3 K 0 % 0 % 0 % 0 m²/s² 0 0 6.67 3
10:00 5 J/kg 4.4 K 0 % 0 % 0 % 0 m²/s² 0 0 6.56 3
11:00 0 J/kg 4.0 K 0 % 0 % 0 % 0 m²/s² 0 0 5.86 3
12:00 25 J/kg 4.1 K 0 % 0 % 0 % 0 m²/s² 0 0 6.08 3
13:00 72 J/kg 3.4 K 0 % 0 % 0 % 0 m²/s² 0 0 5.14 3
14:00 75 J/kg 2.9 K 0 % 0 % 0 % 0 m²/s² 0 0 5.03 3
Temp Baro Wind Neerslag
  EWN Forecast EWN WRFDA DWD ICON FMI HIRLAM MET Norway GFS
 03:14     22:50    Daglengte: 19:36 Vandaag
17:00 4.9° 1025.5 hPa 2.7 m/s 0.0 mm 5.5° 1023.1 hPa 1.2 m/s 0.0 mm 5.3° 1025.7 hPa 2.9 m/s -2.0 mm 5.4° 1025.6 hPa 2.9 m/s 0.0 mm 5.4° 1025.7 hPa 1.6 m/s
20:00 4.5° 1024.6 hPa 2.8 m/s 0.0 mm 5.2° 1022.4 hPa 2.1 m/s 0.0 mm 5.0° 1024.4 hPa 2.5 m/s 0.0 mm 4.9° 1024.8 hPa 2.9 m/s 0.0 mm 4.2° 1024.9 hPa 2.0 m/s
23:00 3.6° 1024.1 hPa 2.3 m/s 0.0 mm 3.7° 1022.1 hPa 3.1 m/s 0.0 mm 3.9° 1024.7 hPa 2.1 m/s 0.0 mm 4.3° 1024.2 hPa 2.3 m/s 0.0 mm 2.6° 1025.3 hPa 1.7 m/s
 03:09     22:54    Daglengte: 19:45 Morgen
02:00 3.0° 1023.5 hPa 2.0 m/s 0.0 mm 3.9° 1021.1 hPa 3.0 m/s 0.0 mm 3.4° 1023.5 hPa 1.5 m/s 0.0 mm 3.1° 1024.3 hPa 1.8 m/s 0.0 mm 2.7° 1024.3 hPa 1.2 m/s
05:00 2.1° 1022.7 hPa 1.4 m/s 0.0 mm 3.4° 1020.7 hPa 2.6 m/s 0.0 mm 3.3° 1022.8 hPa 1.1 m/s 0.0 mm 1.8° 1023.1 hPa 1.0 m/s 0.0 mm 3.3° 1023.5 hPa 1.0 m/s
08:00 4.5° 1022.3 hPa 0.6 m/s 0.0 mm 5.1° 1020.3 hPa 1.3 m/s 0.0 mm 4.6° 1022.6 hPa 0.3 m/s 0.0 mm 5.2° 1022.1 hPa 0.1 m/s 0.0 mm 4.5° 1022.6 hPa 0.2 m/s
11:00 6.7° 1021.6 hPa 0.8 m/s 0.0 mm 7.5° 1019.7 hPa 0.9 m/s 0.0 mm 6.8° 1021.9 hPa 0.4 m/s 0.0 mm 7.6° 1021.1 hPa 0.8 m/s 0.0 mm 6.2° 1021.8 hPa 0.9 m/s
14:00 8.9° 1020.2 hPa 0.8 m/s 0.0 mm 9.0° 1018.6 hPa 2.4 m/s 0.0 mm 9.2° 1020.4 hPa 0.6 m/s 0.0 mm 10.2° 1019.6 hPa 0.6 m/s 0.0 mm 7.7° 1020.1 hPa 1.2 m/s
17:00 9.7° 1018.9 hPa 1.3 m/s 0.0 mm 8.9° 1017.6 hPa 4.5 m/s 0.0 mm 10.3° 1019.1 hPa 0.7 m/s 0.0 mm 11.6° 1018.5 hPa 1.3 m/s 0.0 mm 9.0° 1018.4 hPa 2.0 m/s
20:00 8.9° 1017.8 hPa 1.6 m/s 0.0 mm 8.1° 1016.0 hPa 2.7 m/s 0.0 mm 10.2° 1018.0 hPa 0.8 m/s 0.0 mm 10.6° 1017.0 hPa 1.9 m/s 0.0 mm 7.4° 1018.2 hPa 2.7 m/s
23:00 5.1° 1018.0 hPa 2.0 m/s 0.0 mm 6.4° 1014.4 hPa 2.1 m/s 0.0 mm 6.0° 1018.5 hPa 1.6 m/s 0.0 mm 6.3° 1017.0 hPa 2.1 m/s 0.0 mm 4.8° 1018.3 hPa 2.4 m/s
 03:05     22:59    Daglengte: 19:54 Donderdag 19 Mei
02:00 3.8° 1018.6 hPa 2.1 m/s 0.0 mm 6.5° 1013.7 hPa 1.9 m/s 0.1 mm 4.0° 1019.4 hPa 1.5 m/s 0.0 mm 5.2° 1016.9 hPa 3.1 m/s 0.0 mm 4.2° 1019.3 hPa 1.8 m/s
05:00 3.8° 1019.1 hPa 2.0 m/s 0.0 mm 7.3° 1013.5 hPa 5.0 m/s 11.3 mm 3.8° 1019.8 hPa 1.2 m/s 0.0 mm 4.9° 1018.0 hPa 3.1 m/s 0.0 mm 4.5° 1020.1 hPa 0.9 m/s
08:00 5.7° 1019.4 hPa 1.7 m/s 0.0 mm 6.7° 1014.5 hPa 4.5 m/s 16.8 mm 5.5° 1019.9 hPa 1.1 m/s 0.0 mm 7.8° 1018.1 hPa 3.2 m/s 0.0 mm 5.4° 1020.3 hPa 0.7 m/s
11:00 7.5° 1019.2 hPa 1.4 m/s 0.0 mm 7.3° 1014.9 hPa 4.4 m/s 19.6 mm 9.0° 1019.5 hPa 1.1 m/s 0.0 mm 6.6° 1020.2 hPa 1.1 m/s
14:00 9.7° 1018.3 hPa 1.9 m/s 0.0 mm 9.6° 1014.5 hPa 2.1 m/s 20.4 mm 11.3° 1018.8 hPa 2.4 m/s 0.0 mm 8.1° 1019.7 hPa 1.5 m/s
17:00 11.3° 1017.1 hPa 1.8 m/s 0.0 mm 12.3° 1013.5 hPa 1.8 m/s 20.7 mm 12.1° 1017.6 hPa 2.4 m/s 0.0 mm 8.3° 1019.3 hPa 1.9 m/s
20:00 9.1° 1015.6 hPa 2.4 m/s 0.0 mm 11.1° 1012.0 hPa 2.9 m/s 20.8 mm 10.4° 1016.7 hPa 2.7 m/s 0.0 mm 7.4° 1019.3 hPa 2.0 m/s
23:00 6.5° 1015.0 hPa 2.4 m/s 0.0 mm 7.5° 1010.9 hPa 2.5 m/s 20.8 mm 7.9° 1016.1 hPa 1.8 m/s 0.0 mm 6.3° 1019.1 hPa 2.1 m/s
 03:01     23:03    Daglengte: 20:02 Vrijdag 20 Mei
02:00 6.1° 1015.0 hPa 1.8 m/s 0.0 mm 9.8° 1009.7 hPa 1.9 m/s 20.8 mm 6.2° 1015.8 hPa 1.4 m/s 0.1 mm 5.8° 1019.1 hPa 1.8 m/s
05:00 5.7° 1015.4 hPa 1.3 m/s 6.5 mm 8.8° 1010.0 hPa 3.1 m/s 27.2 mm 5.6° 1016.1 hPa 1.0 m/s 0.8 mm 5.5° 1019.2 hPa 1.7 m/s
08:00 6.9° 1015.6 hPa 1.2 m/s 0.0 mm 9.0° 1011.2 hPa 4.8 m/s 27.8 mm 6.3° 1016.7 hPa 0.3 m/s 0.1 mm 7.6° 1019.5 hPa 1.0 m/s
11:00 9.0° 1015.6 hPa 1.5 m/s 0.0 mm 9.6° 1011.7 hPa 4.1 m/s 28.1 mm 8.8° 1016.5 hPa 0.9 m/s 0.1 mm 8.0° 1020.0 hPa 0.6 m/s
14:00 11.0° 1014.9 hPa 1.4 m/s 0.0 mm 12.1° 1011.3 hPa 3.6 m/s 29.1 mm 10.7° 1015.9 hPa 0.8 m/s 0.0 mm 11.4° 1019.1 hPa 0.8 m/s
17:00 12.7° 1017.9 hPa 0.7 m/s 2.2 mm 12.7° 1017.9 hPa 0.7 m/s 2.2 mm
20:00 12.8° 1016.6 hPa 1.8 m/s 2.2 mm 12.8° 1016.6 hPa 1.8 m/s 2.2 mm
23:00 9.1° 1016.4 hPa 2.5 m/s 2.2 mm 9.1° 1016.4 hPa 2.5 m/s 2.2 mm
 02:57     23:08    Daglengte: 20:11 Zaterdag 21 Mei
02:00 8.7° 1015.1 hPa 1.8 m/s 2.2 mm 8.7° 1015.1 hPa 1.8 m/s 2.2 mm
05:00 9.1° 1013.9 hPa 1.8 m/s 2.2 mm 9.1° 1013.9 hPa 1.8 m/s 2.2 mm
08:00 11.6° 1012.8 hPa 1.3 m/s 2.2 mm 11.6° 1012.8 hPa 1.3 m/s 2.2 mm
11:00 14.9° 1011.5 hPa 0.7 m/s 2.3 mm 14.9° 1011.5 hPa 0.7 m/s 2.3 mm
14:00 16.2° 1011.1 hPa 1.5 m/s 2.6 mm 16.2° 1011.1 hPa 1.5 m/s 2.6 mm
17:00 15.1° 1011.5 hPa 1.9 m/s 4.1 mm 15.1° 1011.5 hPa 1.9 m/s 4.1 mm
20:00 13.0° 1012.7 hPa 0.4 m/s 5.6 mm 13.0° 1012.7 hPa 0.4 m/s 5.6 mm
23:00 12.4° 1012.8 hPa 1.4 m/s 6.0 mm 12.4° 1012.8 hPa 1.4 m/s 6.0 mm
 02:53     23:12    Daglengte: 20:19 Zondag 22 Mei
02:00 11.1° 1013.3 hPa 1.4 m/s 6.4 mm 11.1° 1013.3 hPa 1.4 m/s 6.4 mm
05:00 9.7° 1013.3 hPa 2.2 m/s 7.1 mm 9.7° 1013.3 hPa 2.2 m/s 7.1 mm
08:00 9.0° 1013.5 hPa 1.5 m/s 7.8 mm 9.0° 1013.5 hPa 1.5 m/s 7.8 mm
11:00 9.2° 1013.7 hPa 1.2 m/s 8.3 mm 9.2° 1013.7 hPa 1.2 m/s 8.3 mm
14:00 10.1° 1013.3 hPa 1.5 m/s 8.5 mm 10.1° 1013.3 hPa 1.5 m/s 8.5 mm
17:00 9.0° 1013.6 hPa 2.5 m/s 9.1 mm 9.0° 1013.6 hPa 2.5 m/s 9.1 mm
20:00 9.0° 1012.8 hPa 0.9 m/s 9.2 mm 9.0° 1012.8 hPa 0.9 m/s 9.2 mm
23:00 8.0° 1012.2 hPa 1.3 m/s 9.7 mm 8.0° 1012.2 hPa 1.3 m/s 9.7 mm
 02:49     23:17    Daglengte: 20:28 Maandag 23 Mei
02:00 8.0° 1011.5 hPa 1.1 m/s 9.9 mm 8.0° 1011.5 hPa 1.1 m/s 9.9 mm
05:00 8.0° 1010.0 hPa 1.5 m/s 10.8 mm 8.0° 1010.0 hPa 1.5 m/s 10.8 mm
08:00 8.2° 1009.3 hPa 1.3 m/s 12.0 mm 8.2° 1009.3 hPa 1.3 m/s 12.0 mm
11:00 8.3° 1008.9 hPa 1.6 m/s 13.3 mm 8.3° 1008.9 hPa 1.6 m/s 13.3 mm
14:00 8.4° 1008.9 hPa 1.6 m/s 15.3 mm 8.4° 1008.9 hPa 1.6 m/s 15.3 mm
17:00 8.2° 1008.6 hPa 1.5 m/s 16.7 mm 8.2° 1008.6 hPa 1.5 m/s 16.7 mm
20:00 7.6° 1008.4 hPa 0.7 m/s 16.9 mm 7.6° 1008.4 hPa 0.7 m/s 16.9 mm
23:00 7.2° 1008.2 hPa 0.6 m/s 17.2 mm 7.2° 1008.2 hPa 0.6 m/s 17.2 mm
 02:45     23:21    Daglengte: 20:36 Dinsdag 24 Mei
02:00 7.0° 1008.1 hPa 0.8 m/s 17.4 mm 7.0° 1008.1 hPa 0.8 m/s 17.4 mm
05:00 7.2° 1007.6 hPa 0.7 m/s 17.5 mm 7.2° 1007.6 hPa 0.7 m/s 17.5 mm
08:00 7.6° 1007.9 hPa 0.6 m/s 17.7 mm 7.6° 1007.9 hPa 0.6 m/s 17.7 mm
11:00 8.3° 1008.7 hPa 0.2 m/s 17.7 mm 8.3° 1008.7 hPa 0.2 m/s 17.7 mm
14:00 10.7° 1008.8 hPa 0.2 m/s 17.7 mm 10.7° 1008.8 hPa 0.2 m/s 17.7 mm
20:00 12.2° 1010.1 hPa 0.8 m/s 17.8 mm 12.2° 1010.1 hPa 0.8 m/s 17.8 mm
 02:40     23:26    Daglengte: 20:46 Woensdag 25 Mei
02:00 7.4° 1013.4 hPa 1.0 m/s 17.8 mm 7.4° 1013.4 hPa 1.0 m/s 17.8 mm
08:00 8.2° 1015.4 hPa 2.1 m/s 17.8 mm 8.2° 1015.4 hPa 2.1 m/s 17.8 mm
14:00 11.5° 1016.0 hPa 3.1 m/s 17.8 mm 11.5° 1016.0 hPa 3.1 m/s 17.8 mm
20:00 10.9° 1016.7 hPa 1.9 m/s 17.8 mm 10.9° 1016.7 hPa 1.9 m/s 17.8 mm
 02:36     23:31    Daglengte: 20:55 Donderdag 26 Mei
02:00 7.0° 1018.0 hPa 0.5 m/s 17.8 mm 7.0° 1018.0 hPa 0.5 m/s 17.8 mm
08:00 10.3° 1017.9 hPa 0.3 m/s 17.8 mm 10.3° 1017.9 hPa 0.3 m/s 17.8 mm
14:00 15.5° 1016.6 hPa 1.1 m/s 17.8 mm 15.5° 1016.6 hPa 1.1 m/s 17.8 mm
20:00 16.7° 1015.3 hPa 0.1 m/s 17.8 mm 16.7° 1015.3 hPa 0.1 m/s 17.8 mm
 02:32     23:36    Daglengte: 21:04 Vrijdag 27 Mei
02:00 12.0° 1015.5 hPa 1.4 m/s 17.8 mm 12.0° 1015.5 hPa 1.4 m/s 17.8 mm
08:00 16.1° 1014.4 hPa 1.2 m/s 17.8 mm 16.1° 1014.4 hPa 1.2 m/s 17.8 mm
14:00 12.5° 1014.2 hPa 1.6 m/s 1.1 mm
20:00 11.9° 1014.7 hPa 1.7 m/s 1.1 mm
 02:27     23:41    Daglengte: 21:14 Zaterdag 28 Mei
02:00 8.8° 1015.7 hPa 1.1 m/s 1.1 mm
08:00 10.1° 1015.8 hPa 1.1 m/s 1.3 mm
14:00 12.6° 1016.0 hPa 1.2 m/s 0.5 mm
20:00 12.4° 1016.1 hPa 1.0 m/s 0.5 mm
 02:23     23:46    Daglengte: 21:23 Zondag 29 Mei
02:00 9.1° 1016.7 hPa 0.5 m/s 0.8 mm
08:00 10.8° 1016.2 hPa 0.5 m/s 1.5 mm
14:00 14.0° 1015.7 hPa 1.4 m/s 1.1 mm
20:00 13.6° 1015.3 hPa 1.3 m/s 0.8 mm
 02:19     23:51    Daglengte: 21:32 Maandag 30 Mei
02:00 9.8° 1015.9 hPa 0.4 m/s 0.6 mm
08:00 11.0° 1015.2 hPa 0.8 m/s 0.4 mm
14:00 13.4° 1014.3 hPa 1.0 m/s 0.9 mm
20:00 12.9° 1013.0 hPa 0.6 m/s 1.4 mm
 02:14     23:56    Daglengte: 21:42 Dinsdag 31 Mei
02:00 9.9° 1012.7 hPa 0.7 m/s 0.4 mm
08:00 11.3° 1011.7 hPa 0.9 m/s 1.5 mm
14:00 13.4° 1011.5 hPa 1.9 m/s 1.7 mm
20:00 12.5° 1011.6 hPa 1.6 m/s 1.1 mm
 02:10     00:02    Daglengte: 2:08 Woensdag 01 Jun
02:00 9.4° 1012.2 hPa 0.6 m/s 0.5 mm
08:00 11.5° 1011.5 hPa 0.6 m/s 0.4 mm
14:00 14.2° 1010.8 hPa 1.3 m/s 0.7 mm
FMI Hirlam - 7.5 km EWN WRFDA - 12 km DWD ICON - 7 km GFS - 25 km Basiskaart






























































Updatetijd (Europe/Brussels) Resolutie Lengte Stap
FMI Hirlam 14:00, 20:00, 02:00, 08:00 7.5 km 49h 1h
EWN WRFDA 10:15, 16:15, 22:15, 04:15 12 km 73h 1h
DWD ICON 11:45, 17:45, 23:45, 05:45 7 km 75h 1h
GFS 14:15, 20:15, 02:15, 08:15 25 km 237h 3h
30+ mm
25-30 mm
20-25 mm
15-20 mm
10-15 mm
6-10 mm
4-6 mm
2-4 mm
1-2 mm
0.5-1 mm
0.2-0.5 mm
0.1-0.2 mm
30+ mm
25-30 mm
20-25 mm
15-20 mm
10-15 mm
6-10 mm
4-6 mm
2-4 mm
1-2 mm
0.5-1 mm
0.2-0.5 mm
0.1-0.2 mm
Sneeuwval
Natte sneeuw
Hagel
Vorst
30+ mm
25-30 mm
20-25 mm
15-20 mm
10-15 mm
6-10 mm
4-6 mm
2-4 mm
1-2 mm
0.5-1 mm
0.2-0.5 mm
0.1-0.2 mm
Sneeuwval
Natte sneeuw
Hagel
Vorst
Onweer
50 mm
40 mm
30 mm
26 mm
22 mm
18 mm
14 mm
10 mm
9 mm
8 mm
7 mm
6 mm
5 mm
4.5 mm
4 mm
3.5 mm
3 mm
2.5 mm
2 mm
1.5 mm
1 mm
0.8 mm
0.6 mm
0.4 mm
0.2 mm
0.05 mm
35°
30°
25°
20°
15°
10°
-5°
-10°
-15°
-20°
-25°
-30°
-35°
33> m/s
29 m/s
25 m/s
21 m/s
17 m/s
14 m/s
11 m/s
8 m/s
5 m/s
3 m/s
0 m/s
2600 J/kg
2400 J/kg
2200 J/kg
2000 J/kg
1800 J/kg
1600 J/kg
1400 J/kg
1200 J/kg
1000 J/kg
800 J/kg
600 J/kg
400 J/kg
200 J/kg
70 dBZ
65 dBZ
60 dBZ
55 dBZ
50 dBZ
45 dBZ
40 dBZ
35 dBZ
30 dBZ
25 dBZ
20 dBZ
15 dBZ
10 dBZ
5 dBZ
-1 K
-2 K
-3 K
-4 K
-5 K
-6 K
-7 K
-8 K
-9 K
950 m²/s²
900 m²/s²
850 m²/s²
800 m²/s²
750 m²/s²
700 m²/s²
650 m²/s²
600 m²/s²
550 m²/s²
500 m²/s²
450 m²/s²
400 m²/s²
350 m²/s²
300 m²/s²
250 m²/s²
200 m²/s²
150 m²/s²
100 m²/s²
46 m/s
44 m/s
42 m/s
40 m/s
38 m/s
36 m/s
34 m/s
32 m/s
30 m/s
28 m/s
26 m/s
24 m/s
22 m/s
20 m/s
16 m/s
12 m/s
8 m/s
4 m/s
30 m/s
28 m/s
26 m/s
24 m/s
22 m/s
20 m/s
18 m/s
16 m/s
14 m/s
12 m/s
10 m/s
8 m/s
6 m/s
4 m/s
2 m/s
3.0
2.8
2.6
2.4
2.2
2.0
1.8
1.6
1.4
1.2
1.0
0.8
0.6
0.4
0.2
15
14
13
12
11
10
9
8
7
6
5
4
3
2
1
90%
80%
70%
60%
50%
40%
30%
20%
10%
42
40
38
36
34
32
30
28
26
24
22
20
18
16
14
12
90+ cm
80-90 cm
70-80 cm
60-70 cm
50-60 cm
40-50 cm
30-40 cm
20-30 cm
10-20 cm
1-10 cm
Sneeuwval
Natte sneeuw
Regen
>120 mm
115 mm
110 mm
105 mm
100 mm
95 mm
90 mm
85 mm
80 mm
75 mm
70 mm
65 mm
60 mm
55 mm
50 mm
45 mm
45 mm
40 mm
35 mm
30 mm
25 mm
20 mm
15 mm
10 mm
5 mm
0.1 mm
960 hPa
880 hPa
800 hPa